Content
SEND FEEDBACK

Daily
Averages
Monthly
Summary
Canada

CALGARY, ALBERTA


Home > North America > Canada > Alberta
Elevation: 3556 feet     Latitude: 51 06N     Longitude: 114 01W

WEATHER
 
SELECT A DAY
Number of Records: 195,208;   Date Range: 1/1/95 - 10/20/14
 
SHARE

PRINT THIS DATA

[ ← Previous Day ]
WEATHER ALMANAC - SEPTEMBER 28, 2013
[ Next Day → ]
[ °C ]   °F
Weather ElementAverageHighLow
Temperature47.2 °F60.8 °F (4:31 pm)33.8 °F (7:00 am)
Dewpoint31.2 °F39.2 °F (8:00 pm)24.8 °F (1:00 am)
Humidity54.1 %75 % (7:00 am)31 % (6:00 pm)
Barometer29.61 in29.76 in (2:00 am)29.31 in (11:00 pm)
Wind Speed10.9 mph21.9 mph (5:00 pm)
Wind Gust27.6 mph (5:00 pm)
Weather ElementAverage
Visibility27.4 mi
Wind DirectionSSW (189.7 °)

Weather ElementTotal
Precipitation---
Heating Degree Days17.7 (Base 65)
Averaged from 29 records on September 28, 2013
WEATHER CONDITIONS BREAKOUT
WIND DIRECTION BREAKOUT
WEATHER BY HOUR - SEPTEMBER 28, 2013
[ °C ]   °F
Local TimeTemperatureDewpointHumidityBarometerVisibilityWind DirectionWind SpeedGust SpeedPrecipitationEventsConditions
12:00 AM42.8 °F26.6 °F53 %29.75 in15.0 miNorth (350°)2.3 mphClear
1:00 AM41.0 °F24.8 °F53 %29.75 in15.0 miNorth (350°)4.6 mphClear
2:00 AM37.4 °F24.8 °F60 %29.76 in15.0 miNNE (20°)2.3 mphClear
2:30 AM35.6 °F24.8 °F65 %29.76 in15.0 miSSE (160°)6.9 mphClear
3:00 AM39.2 °F26.6 °F61 %29.75 in15.0 miSW (230°)5.8 mphClear
4:00 AM35.6 °F26.6 °F70 %29.76 in15.0 miSouth (190°)12.7 mphClear
5:00 AM35.6 °F26.6 °F70 %29.75 in15.0 miSouth (190°)8.1 mphClear
6:00 AM35.6 °F24.8 °F65 %29.75 in15.0 miSouth (190°)6.9 mphClear
6:00 AM36.0 °F26.0 °F54 %29.75 in15.0 miSouth (190°)6.9 mph
7:00 AM33.8 °F26.6 °F75 %29.73 in15.0 miSouth (180°)4.6 mphPartly Cloudy
8:00 AM35.6 °F28.4 °F75 %29.73 in40.0 miSouth (180°)6.9 mphMostly Cloudy
9:00 AM39.2 °F28.4 °F65 %29.71 in40.0 miSSW (200°)8.1 mphMostly Cloudy
10:00 AM42.8 °F30.2 °F61 %29.70 in40.0 miSSW (200°)9.2 mphMostly Cloudy
11:00 AM50.0 °F30.2 °F47 %29.67 in40.0 miSouth (180°)8.1 mphMostly Cloudy
12:00 PM50.0 °F32.0 °F50 %29.64 in40.0 miSouth (190°)11.5 mph17.3 mphMostly Cloudy
12:00 PM50.0 °F32.0 °F37 %29.64 in37.0 miSouth (190°)11.5 mphScattered Clouds
1:00 PM53.6 °F32.0 °F44 %29.61 in40.0 miSSW (200°)12.7 mph20.7 mphMostly Cloudy
2:00 PM53.6 °F30.2 °F41 %29.59 in40.0 miSouth (190°)12.7 mph20.7 mphMostly Cloudy
3:00 PM59.0 °F32.0 °F36 %29.54 in40.0 miSouth (180°)15.0 mphMostly Cloudy
4:00 PM57.2 °F33.8 °F41 %29.53 in40.0 miSE (140°)12.7 mph19.6 mphMostly Cloudy
4:31 PM60.8 °F33.8 °F36 %29.50 in40.0 miSSW (210°)17.3 mphMostly Cloudy
5:00 PM59.0 °F35.6 °F42 %29.48 in40.0 miSSW (200°)21.9 mph27.6 mphMostly Cloudy
6:00 PM59.0 °F37.4 °F45 %29.47 in35.0 miSouth (180°)16.1 mph26.5 mphMostly Cloudy
6:00 PM59.0 °F36.0 °F31 %29.48 in34.0 miSouth (190°)18.4 mphPartly Cloudy
7:00 PM55.4 °F37.4 °F51 %29.47 in40.0 miSouth (170°)15.0 mph25.3 mphMostly Cloudy
8:00 PM53.6 °F39.2 °F58 %29.44 in15.0 miSouth (170°)15.0 mphScattered Clouds
9:00 PM53.6 °F39.2 °F58 %29.40 in15.0 miSSE (160°)16.1 mph21.9 mphPartly Cloudy
10:00 PM51.8 °F39.2 °F62 %29.36 in15.0 miSouth (170°)16.1 mph23.0 mphPartly Cloudy
11:00 PM51.8 °F39.2 °F62 %29.31 in15.0 miSSE (150°)11.5 mph18.4 mphPartly Cloudy
Hourly data recorded from CYYC, located miles away from Calgary, Alberta







STORIES FROM OUR PARTNERS